User: anonymous   Login
Location: Unspecified
(0.0000°N, 0.0000°E)
Time: 17:01:20
(UTC+00:00)
Language:

Mublcom - Orbit

View from above orbital plane
View from above orbital plane
View from above satellite
View from above satellite

Ground track
Ground track

The orbit data is extracted from the following two-line orbital elements,

1 25736U 99026B   18175.18459714  .00000187  00000-0  59292-4 0  9997
2 25736  97.7212 228.8567 0004122 327.2599  32.8341 14.49132765  7063
Epoch (UTC): 24 June 2018 04:25:49
Eccentricity: 0.0004122
inclination: 97.7212°
perigee height: 725 km
apogee height: 731 km
right ascension of ascending node: 228.8567°
argument of perigee: 327.2599°
revolutions per day: 14.49132765
mean anomaly at epoch: 32.8341°
orbit number at epoch: 706

The dashed part of the orbit path shows where the satellite is in the earth's shadow,  

DLR